Flag for U.S.A. Weather past 2 weeks in Black Mountain, North Carolina, U.S.A.

Now
78 °F

Passing clouds.


Feels Like: 80 °F
Forecast: 57 / 80 °F
Wind: 9 mph from South

Location: Asheville Regional Airport

Current Time: May 30, 2015 at 4:47:47 PM

Latest Report: May 30, 2015 at 3:54 PM


Visibility: 10 mi

Pressure: 30.12 "Hg

Humidity: 54%

Dew point: 60 °F

Location of Black MountainLocation

Historic Weather in Black Mountain — Graph

°F

Black Mountain temperature yesterday

Maximum temperature yesterday: 78 °F (at 5:54 PM)
Minimum temperature yesterday: 62 °F (at 5:01 AM)
Average temperature yesterday: 69 °F

Past Weeks' High & Low Weather Summary

 TemperatureHumidityPressure
High84 °F (May 20, 2:54 PM)97% (May 29, 2:54 AM)30.44 "Hg (May 29, 2:54 AM)
Low44 °F (May 23, 5:54 AM)18% (May 22, 4:54 PM)29.81 "Hg (May 21, 5:54 AM)
Average68 °F69%30.18 "Hg
* Reported May 15 2:54 PM — May 30 2:54 PM, Black Mountain, Weather by CustomWeather, © 2015

Note: Actual official high and low records may vary slightly from our data, if they occured in-between our weather recording intervals... More about our weather records

Advertising

Black Mountain weather history for previous 24 hours

 ConditionsComfort  
Time TempWeatherWind HumidityBarometerVisibility
2:54 PM
Sat, May 30
75 °FPartly sunny.7 mph60%30.14 "Hg10 mi
1:54 PM75 °FBroken clouds.8 mph60%30.16 "Hg10 mi
12:54 PM74 °FCloudy.3 mph60%30.17 "Hg10 mi
11:54 AM76 °FScattered clouds.7 mph54%30.18 "Hg10 mi
10:54 AM74 °FSunny.8 mph64%30.19 "Hg10 mi
9:54 AM69 °FSunny.3 mph76%30.20 "Hg10 mi
8:54 AM62 °FFog.No wind93%30.21 "Hg3 mi
7:54 AM61 °FFog.3 mph93%30.20 "Hg3 mi
6:54 AM60 °FFog.No wind96%30.19 "Hg3 mi
5:54 AM60 °FFog.No wind96%30.17 "Hg2 mi
4:54 AM60 °FFog.No wind96%30.16 "Hg1 mi
3:54 AM61 °FFog.3 mph97%30.16 "Hg1 mi
2:54 AM61 °FLow clouds.5 mph93%30.17 "Hg10 mi
2:00 AM61 °FFog.3 mph97%30.24 "Hg2 mi
12:54 AM64 °FClear.No wind90%30.17 "Hg10 mi
11:54 PM
Fri, May 29
65 °FClear.No wind91%30.19 "Hg10 mi
10:54 PM66 °FClear.3 mph87%30.19 "Hg10 mi
9:54 PM68 °FClear.No wind82%30.17 "Hg10 mi
8:54 PM71 °FScattered clouds.3 mph71%30.16 "Hg10 mi
7:54 PM73 °FOvercast.5 mph66%30.16 "Hg10 mi
6:54 PM74 °FSunny.7 mph64%30.15 "Hg10 mi
5:54 PM78 °FPassing clouds.10 mph54%30.15 "Hg10 mi
4:54 PM77 °FPassing clouds.12 mph54%30.16 "Hg10 mi
Weather by CustomWeather, © 2015

See weather overviewHow to use our weather pages